[[{"header":{"parameterUnit":"m.s-1","parameterCategory":1,"la1":30.2992,"la2":30.254,"lo1":-89.0895,"lo2":-89.0443,"dy":0.0025,"dx":0.0025,"nx":19,"ny":19,"refTime":"2026-04-26T21:00:00:Z","depth":0,"parameterNumber":2,"parameterNumberName":"U-component_of_WINDS"},"data":[0,0,0,-0.4622,-0.4621,-0.4567,-0.4567,-0.4509,-0.4508,0,0,0,0,0,0,0,0,0,0,0,-0.4645,-0.4644,-0.4622,-0.4621,-0.4567,-0.4567,-0.4509,-0.4508,0,0,0,0,0,0,0,0,0,0,0,-0.4645,-0.4644,-0.4644,-0.462,-0.4567,-0.4567,-0.4509,-0.4546,0,0,0,0,0,0,0,0,0,0,-0.4596,-0.4624,-0.4644,-0.4644,-0.462,-0.4567,-0.4567,-0.4547,-0.4543,-0.4538,0,-0.4535,0,-0.4521,-0.4505,-0.4505,0,0,0,-0.4615,-0.4627,-0.4606,-0.4644,-0.462,-0.4567,-0.459,-0.4545,-0.4541,-0.4533,-0.4535,-0.4532,-0.452,-0.4505,-0.4505,-0.4495,-0.4495,0,0,-0.4618,-0.4638,-0.4609,-0.4604,-0.4613,-0.4591,-0.4588,-0.4542,-0.4545,-0.4534,-0.4531,-0.4519,-0.4505,-0.4504,-0.4495,-0.4495,0,0,0,-0.463,-0.4641,-0.4621,-0.4607,-0.4596,-0.459,-0.4586,-0.4547,-0.4539,-0.453,-0.4519,-0.4504,-0.4504,-0.4494,-0.4495,-0.4526,0,0,0,-0.4632,-0.4648,-0.4622,-0.4634,-0.4597,-0.4571,-0.4592,-0.4542,-0.4536,-0.4519,-0.4504,-0.4503,-0.4494,-0.4495,-0.4525,-0.4537,0,0,0,-0.4646,-0.4649,-0.4644,-0.4635,-0.4613,-0.4571,-0.456,-0.454,-0.453,-0.4505,-0.4503,-0.4494,-0.4494,-0.4523,-0.4535,-0.4542,0,0,0,-0.4666,-0.4671,-0.4645,-0.4646,-0.4614,-0.4591,-0.456,-0.4542,-0.4524,-0.4504,-0.4494,-0.4495,-0.4523,-0.4534,-0.4541,-0.4552,-0.4559,0,0,-0.4684,-0.4674,-0.4673,-0.4648,-0.4635,-0.4597,-0.4589,-0.4553,-0.4531,-0.4508,-0.4508,-0.4525,-0.4535,-0.4542,-0.4585,-0.4591,0,0,0,-0.4685,-0.4685,-0.4678,-0.4663,-0.4636,-0.4615,-0.4579,-0.4566,-0.4546,-0.4524,-0.4528,-0.4533,-0.4536,-0.4541,-0.4545,-0.4548,-0.4497,-0.4497,-0.4497,-0.474,-0.4713,-0.4711,-0.4678,-0.4664,-0.4628,-0.4614,-0.459,-0.4566,-0.4568,-0.4561,-0.4591,-0.4597,-0.46,-0.4603,-0.4564,-0.4564,-0.4564,-0.4564,-0.4764,-0.4761,-0.473,-0.4717,-0.4689,-0.4678,-0.4643,-0.4627,-0.4613,-0.4593,-0.4594,-0.4577,-0.4607,-0.4608,-0.4566,-0.4566,-0.4565,-0.4565,-0.4565,-0.4798,-0.4792,-0.4776,-0.4754,-0.4739,-0.4705,-0.4693,-0.4668,-0.4643,-0.4644,-0.4636,-0.4635,-0.4632,-0.4642,-0.4642,-0.4642,-0.4642,-0.4642,-0.4642,-0.4839,-0.4821,-0.4815,-0.4789,-0.4777,-0.4757,-0.4722,-0.4709,-0.4688,-0.4671,-0.467,-0.4648,-0.4614,-0.4607,-0.4644,-0.4644,-0.4643,-0.4643,-0.4643,-0.4876,-0.4864,-0.4854,-0.4843,-0.4811,-0.4799,-0.4766,-0.4743,-0.4729,-0.4724,-0.4701,-0.468,-0.4668,-0.4664,-0.4658,-0.4706,-0.4706,-0.4706,-0.4706,-0.4906,-0.4897,-0.4883,-0.4866,-0.4846,-0.4816,-0.4807,-0.478,-0.4749,-0.4739,-0.4728,-0.4718,-0.4715,-0.4704,-0.47,-0.4694,-0.475,-0.475,-0.475,-0.4928,-0.4917,-0.4914,-0.4885,-0.4858,-0.4836,-0.4827,-0.4809,-0.4772,-0.4751,-0.4731,-0.4729,-0.4712,-0.4707,-0.4687,-0.468,-0.4669,0,0]},{"header":{"parameterUnit":"m.s-1","parameterCategory":1,"la1":30.2992,"la2":30.254,"lo1":-89.0895,"lo2":-89.0443,"dy":0.0025,"dx":0.0025,"nx":19,"ny":19,"refTime":"2026-04-26T21:00:00:Z","depth":0,"parameterNumber":3,"parameterNumberName":"V-component_of_WINDS"},"data":[0,0,0,3.6817,3.6817,3.6807,3.6807,3.6819,3.6819,0,0,0,0,0,0,0,0,0,0,0,3.6833,3.6834,3.6817,3.6817,3.6807,3.6807,3.6819,3.6819,0,0,0,0,0,0,0,0,0,0,0,3.6833,3.6834,3.6834,3.6817,3.6807,3.6807,3.6819,3.6818,0,0,0,0,0,0,0,0,0,0,3.6823,3.6851,3.6834,3.6834,3.6817,3.6807,3.6807,3.6817,3.6818,3.6833,0,3.685,0,3.6835,3.6822,3.6822,0,0,0,3.6807,3.6851,3.6836,3.6835,3.6817,3.6808,3.6809,3.6817,3.6818,3.6834,3.685,3.685,3.6835,3.6822,3.6822,3.6943,3.6944,0,0,3.6807,3.6839,3.6836,3.6837,3.6839,3.6809,3.6809,3.6817,3.6837,3.685,3.685,3.6835,3.6822,3.6822,3.6942,3.6944,0,0,0,3.6816,3.684,3.6824,3.6837,3.6834,3.6809,3.6809,3.6837,3.6829,3.685,3.6836,3.6822,3.6823,3.6941,3.6943,3.7025,0,0,0,3.6816,3.6845,3.6825,3.6844,3.6834,3.6835,3.6828,3.6828,3.6828,3.6835,3.6822,3.6823,3.694,3.6942,3.702,3.7059,0,0,0,3.6829,3.6846,3.6849,3.6846,3.6843,3.6834,3.6826,3.6827,3.682,3.6822,3.6823,3.6939,3.6942,3.7016,3.7052,3.71,0,0,0,3.6853,3.6923,3.6851,3.6923,3.6843,3.6885,3.6826,3.6855,3.6866,3.6822,3.694,3.6943,3.7015,3.7047,3.7096,3.7148,3.7172,0,0,3.6959,3.6937,3.6976,3.6912,3.6974,3.6883,3.6958,3.6938,3.691,3.6934,3.6936,3.7022,3.7051,3.7099,3.7295,3.7315,0,0,0,3.7021,3.705,3.7059,3.7071,3.7058,3.7049,3.7015,3.7008,3.7027,3.6928,3.7051,3.7068,3.7095,3.7118,3.7135,3.7156,3.6955,3.6954,3.6954,3.7216,3.7175,3.7238,3.7197,3.7209,3.7173,3.7179,3.7164,3.7119,3.7149,3.7156,3.728,3.7308,3.732,3.7344,3.7179,3.718,3.718,3.718,3.7367,3.7402,3.7341,3.7381,3.7337,3.7371,3.7339,3.7306,3.7331,3.7271,3.7293,3.7231,3.7343,3.7361,3.7186,3.7185,3.7184,3.7184,3.7183,3.7491,3.75,3.749,3.7503,3.7518,3.7473,3.75,3.746,3.7422,3.7444,3.7447,3.7446,3.744,3.7448,3.7449,3.7449,3.7449,3.745,3.745,3.7624,3.7609,3.7636,3.7628,3.763,3.7628,3.7593,3.7595,3.7586,3.7555,3.7554,3.7508,3.7361,3.7326,3.7456,3.7455,3.7454,3.7454,3.7453,3.7793,3.7748,3.779,3.7793,3.778,3.7798,3.7745,3.7752,3.7748,3.7763,3.7711,3.7609,3.7584,3.757,3.7541,3.7719,3.7719,3.7719,3.7719,3.7898,3.7881,3.7915,3.7922,3.7924,3.7881,3.7931,3.7905,3.7871,3.7865,3.7834,3.7791,3.7779,3.776,3.7743,3.7715,3.7933,3.7933,3.7934,3.8,3.7981,3.8032,3.7996,3.7983,3.7973,3.8019,3.8031,3.7982,3.7941,3.7861,3.7852,3.7782,3.7761,3.7719,3.7693,3.764,0,0]}]]